FDX2454 KTPA-KMEM

Flight info

Callsign FDX2454
Flight time N/A
Altitude 30000
Route ENDED2 LACEN PATOY Q116 GOOGY WASER VANZE3
Aircraft MD11/H-SDE1E2E3FGHIJ2J3J4J5M1RWXY/LB1D1

Departure

Time 2026-04-30 14:06
Airport Tampa International Airport (KTPA)

Arrival

Time N/A
Airport Memphis International Airport (KMEM)
Time Latitude Longitude Altitude Speed Heading
2026-04-30 13:32 27.97592 -82.52044 46 ft 0 kts 92°
2026-04-30 13:53 27.97592 -82.52057 47 ft 3 kts 92°
2026-04-30 13:53 27.97593 -82.52079 45 ft 3 kts 92°
2026-04-30 13:53 27.97593 -82.52098 42 ft 3 kts 97°
2026-04-30 13:54 27.97596 -82.52117 40 ft 3 kts 123°
2026-04-30 13:54 27.97605 -82.52129 40 ft 3 kts 160°
2026-04-30 13:54 27.97622 -82.52134 41 ft 3 kts 181°
2026-04-30 13:54 27.97640 -82.52133 42 ft 1 kts 181°
2026-04-30 13:55 27.97646 -82.52133 43 ft 0 kts 181°
2026-04-30 13:58 27.97632 -82.52133 41 ft 5 kts 181°
2026-04-30 13:58 27.97581 -82.52135 53 ft 9 kts 181°
2026-04-30 13:59 27.97503 -82.52137 45 ft 13 kts 182°
2026-04-30 13:59 27.97403 -82.52141 46 ft 15 kts 181°
2026-04-30 13:59 27.97311 -82.52145 45 ft 5 kts 186°
2026-04-30 13:59 27.97290 -82.52161 45 ft 4 kts 237°
2026-04-30 14:00 27.97285 -82.52210 45 ft 6 kts 276°
2026-04-30 14:00 27.97285 -82.52295 46 ft 8 kts 270°
2026-04-30 14:00 27.97285 -82.52376 47 ft 12 kts 271°
2026-04-30 14:01 27.97288 -82.52493 47 ft 17 kts 271°
2026-04-30 14:01 27.97292 -82.52646 47 ft 20 kts 271°
2026-04-30 14:01 27.97288 -82.52724 47 ft 1 kts 245°
2026-04-30 14:01 27.97262 -82.52743 47 ft 9 kts 203°
2026-04-30 14:02 27.97209 -82.52752 47 ft 14 kts 178°
2026-04-30 14:02 27.97020 -82.52756 49 ft 27 kts 181°
2026-04-30 14:02 27.96815 -82.52763 48 ft 31 kts 181°
2026-04-30 14:02 27.96603 -82.52770 49 ft 29 kts 181°
2026-04-30 14:03 27.96513 -82.52773 50 ft 11 kts 182°
2026-04-30 14:03 27.96473 -82.52782 49 ft 0 kts 205°
2026-04-30 14:03 27.96463 -82.52788 49 ft 3 kts 210°
2026-04-30 14:03 27.96452 -82.52803 50 ft 5 kts 228°
2026-04-30 14:04 27.96440 -82.52846 50 ft 8 kts 270°
2026-04-30 14:04 27.96467 -82.52901 50 ft 7 kts 337°
2026-04-30 14:04 27.96496 -82.52900 49 ft 1 kts
2026-04-30 14:04 27.96508 -82.52899 49 ft 0 kts
2026-04-30 14:05 27.96646 -82.52893 48 ft 59 kts
2026-04-30 14:05 27.97351 -82.52870 46 ft 140 kts
2026-04-30 14:05 27.98540 -82.52843 125 ft 191 kts 359°
2026-04-30 14:06 27.99864 -82.52848 925 ft 188 kts 353°
2026-04-30 14:06 28.02471 -82.53019 2818 ft 190 kts 354°
2026-04-30 14:07 28.05226 -82.53852 3586 ft 237 kts 324°
2026-04-30 14:07 28.06667 -82.54962 3798 ft 262 kts 322°
2026-04-30 14:07 28.08188 -82.56133 4633 ft 265 kts 323°
2026-04-30 14:08 28.11313 -82.58418 6675 ft 268 kts 324°
2026-04-30 14:08 28.12896 -82.59533 7627 ft 269 kts 324°
2026-04-30 14:08 28.16123 -82.61763 9527 ft 272 kts 325°
2026-04-30 14:09 28.17757 -82.62879 10248 ft 283 kts 324°
2026-04-30 14:09 28.19505 -82.64078 10369 ft 312 kts 325°
2026-04-30 14:09 28.23511 -82.66802 11241 ft 346 kts 326°
2026-04-30 14:10 28.25596 -82.68207 12100 ft 349 kts 326°
2026-04-30 14:10 28.27696 -82.69620 12941 ft 352 kts 325°
2026-04-30 14:10 28.29822 -82.71052 13768 ft 355 kts 325°
2026-04-30 14:10 28.31956 -82.72492 14445 ft 359 kts 325°
2026-04-30 14:11 28.34117 -82.73951 15092 ft 363 kts 326°
2026-04-30 14:11 28.36301 -82.75427 15725 ft 368 kts 326°
2026-04-30 14:11 28.38516 -82.76925 16338 ft 372 kts 326°
2026-04-30 14:11 28.40853 -82.78240 16898 ft 380 kts 337°
2026-04-30 14:12 28.43398 -82.78994 17516 ft 386 kts 345°
2026-04-30 14:12 28.46072 -82.79485 18121 ft 392 kts 348°
2026-04-30 14:12 28.48798 -82.79886 18668 ft 396 kts 348°
2026-04-30 14:12 28.51546 -82.80277 19183 ft 398 kts 348°
2026-04-30 14:13 28.54303 -82.80682 19690 ft 401 kts 347°
2026-04-30 14:13 28.57082 -82.81115 20178 ft 403 kts 347°
2026-04-30 14:13 28.59863 -82.81585 20675 ft 405 kts 346°
2026-04-30 14:13 28.62665 -82.82083 21171 ft 408 kts 346°
2026-04-30 14:14 28.65444 -82.82587 21669 ft 411 kts 345°
2026-04-30 14:14 28.68276 -82.83103 22183 ft 414 kts 345°
2026-04-30 14:14 28.71130 -82.83623 22703 ft 417 kts 345°
2026-04-30 14:14 28.74011 -82.84149 23226 ft 420 kts 345°
2026-04-30 14:15 28.76899 -82.84675 23741 ft 423 kts 345°
2026-04-30 14:15 28.79816 -82.85205 24195 ft 425 kts 345°
2026-04-30 14:15 28.82748 -82.85738 24663 ft 428 kts 345°
2026-04-30 14:15 28.85698 -82.86275 25144 ft 430 kts 345°
2026-04-30 14:16 28.88668 -82.86815 25631 ft 433 kts 345°
2026-04-30 14:16 28.91652 -82.87359 26113 ft 436 kts 345°
2026-04-30 14:16 28.94658 -82.87906 26566 ft 438 kts 346°
2026-04-30 14:16 28.97638 -82.88450 27040 ft 441 kts 346°
2026-04-30 14:17 29.00680 -82.89005 27490 ft 443 kts 346°
2026-04-30 14:17 29.03733 -82.89582 27935 ft 445 kts 344°
2026-04-30 14:17 29.06713 -82.90495 28392 ft 441 kts 334°
2026-04-30 14:17 29.09438 -82.92049 28808 ft 437 kts 324°
2026-04-30 14:18 29.11957 -82.94003 29213 ft 437 kts 320°
2026-04-30 14:18 29.14387 -82.96097 29606 ft 438 kts 319°
2026-04-30 14:18 29.19253 -83.00338 29960 ft 446 kts 320°
2026-04-30 14:19 29.26820 -83.06668 29967 ft 450 kts 321°
2026-04-30 14:20 29.31919 -83.10849 29966 ft 450 kts 321°
2026-04-30 14:20 29.39550 -83.17101 29970 ft 446 kts 320°
2026-04-30 14:21 29.44593 -83.21244 29964 ft 446 kts 320°
2026-04-30 14:22 29.52146 -83.27461 29961 ft 445 kts 320°
2026-04-30 14:22 29.59671 -83.33667 29961 ft 445 kts 320°
2026-04-30 14:23 29.69726 -83.41975 29964 ft 443 kts 320°
2026-04-30 14:24 29.77232 -83.48191 29958 ft 443 kts 320°
2026-04-30 14:25 29.87200 -83.56471 29960 ft 443 kts 320°
2026-04-30 14:26 29.94685 -83.62713 29961 ft 443 kts 320°
2026-04-30 14:27 30.02135 -83.68918 29971 ft 438 kts 320°
2026-04-30 14:27 30.07069 -83.73034 29960 ft 437 kts 320°
2026-04-30 14:28 30.14472 -83.79219 29956 ft 437 kts 320°
2026-04-30 14:28 30.19367 -83.83321 29955 ft 436 kts 320°
2026-04-30 14:29 30.28384 -83.90896 29953 ft 431 kts 320°
2026-04-30 14:31 30.41169 -84.01653 29945 ft 425 kts 320°
2026-04-30 14:31 30.48342 -84.07705 29949 ft 425 kts 320°
2026-04-30 14:32 30.55516 -84.13769 29950 ft 425 kts 320°
2026-04-30 14:33 30.60298 -84.17817 29952 ft 426 kts 320°
2026-04-30 14:33 30.67445 -84.23876 29949 ft 425 kts 320°
2026-04-30 14:34 30.72222 -84.27932 29949 ft 425 kts 320°
2026-04-30 14:34 30.76998 -84.31992 29949 ft 424 kts 320°
2026-04-30 14:35 30.84141 -84.38080 29989 ft 424 kts 319°
2026-04-30 14:36 30.88872 -84.42129 29948 ft 421 kts 319°
2026-04-30 14:36 30.93560 -84.46143 29947 ft 421 kts 319°
2026-04-30 14:37 30.98282 -84.50184 29968 ft 421 kts 319°
2026-04-30 14:37 31.03006 -84.54229 29971 ft 421 kts 319°
2026-04-30 14:38 31.07729 -84.58277 29970 ft 421 kts 319°
2026-04-30 14:38 31.12450 -84.62329 29964 ft 421 kts 319°
2026-04-30 14:39 31.17188 -84.66402 29971 ft 425 kts 319°
2026-04-30 14:39 31.21989 -84.70536 29960 ft 431 kts 319°
2026-04-30 14:40 31.29212 -84.76758 29966 ft 432 kts 319°
2026-04-30 14:40 31.34045 -84.80929 29970 ft 432 kts 319°
2026-04-30 14:41 31.38878 -84.85106 29972 ft 432 kts 319°
2026-04-30 14:41 31.43717 -84.89294 29980 ft 434 kts 318°
2026-04-30 14:42 31.48582 -84.93512 29969 ft 436 kts 318°
2026-04-30 14:42 31.53455 -84.97750 29969 ft 436 kts 318°
2026-04-30 14:43 31.58315 -85.02001 29966 ft 436 kts 318°
2026-04-30 14:43 31.63143 -85.06249 29965 ft 438 kts 318°
2026-04-30 14:44 31.68026 -85.10552 29961 ft 439 kts 318°
2026-04-30 14:44 31.72918 -85.14860 29972 ft 439 kts 317°
2026-04-30 14:45 31.77807 -85.19174 29961 ft 439 kts 317°
2026-04-30 14:45 31.82697 -85.23493 29961 ft 439 kts 317°
2026-04-30 14:46 31.87580 -85.27813 29954 ft 439 kts 317°
2026-04-30 14:46 31.91642 -85.31410 29945 ft 440 kts 317°
2026-04-30 14:47 31.97355 -85.36476 29942 ft 439 kts 317°
2026-04-30 14:47 32.02241 -85.40816 29947 ft 441 kts 317°
2026-04-30 14:48 32.07135 -85.45169 29947 ft 440 kts 317°
2026-04-30 14:48 32.12026 -85.49524 29948 ft 440 kts 317°
2026-04-30 14:49 32.16883 -85.53856 29951 ft 440 kts 316°
2026-04-30 14:49 32.21770 -85.58221 29949 ft 440 kts 316°
2026-04-30 14:50 32.29084 -85.64792 29963 ft 442 kts 316°
2026-04-30 14:51 32.36441 -85.71400 29948 ft 443 kts 316°
2026-04-30 14:52 32.42974 -85.77268 29946 ft 443 kts 316°
2026-04-30 14:52 32.50338 -85.83895 29943 ft 443 kts 316°
2026-04-30 14:53 32.57675 -85.90509 29955 ft 437 kts 316°
2026-04-30 14:54 32.67309 -85.99221 29967 ft 434 kts 315°
2026-04-30 14:55 32.74516 -86.05756 29975 ft 435 kts 315°
2026-04-30 14:56 32.84108 -86.14471 30017 ft 433 kts 315°
2026-04-30 14:56 32.88804 -86.18736 29976 ft 422 kts 315°
2026-04-30 14:57 32.91129 -86.20865 29985 ft 422 kts 315°
2026-04-30 14:58 33.00433 -86.29399 29971 ft 422 kts 315°
2026-04-30 14:58 33.07412 -86.35788 30011 ft 422 kts 315°
2026-04-30 15:00 33.18978 -86.46399 30018 ft 419 kts 314°
2026-04-30 15:01 33.28214 -86.54904 30002 ft 419 kts 314°
2026-04-30 15:01 33.35140 -86.61296 30007 ft 419 kts 314°
2026-04-30 15:02 33.39728 -86.65536 30028 ft 419 kts 314°
2026-04-30 15:03 33.51253 -86.76214 30044 ft 419 kts 314°
2026-04-30 15:04 33.62758 -86.86945 30038 ft 419 kts 314°
2026-04-30 15:05 33.69023 -86.93948 30021 ft 399 kts 298°
2026-04-30 15:06 33.71739 -86.99705 30007 ft 395 kts 293°
2026-04-30 15:07 33.76807 -87.11373 29992 ft 395 kts 294°
2026-04-30 15:08 33.82021 -87.22977 30057 ft 392 kts 294°
2026-04-30 15:09 33.88453 -87.37297 30063 ft 389 kts 294°
2026-04-30 15:10 33.93577 -87.48784 30075 ft 388 kts 294°
2026-04-30 15:11 34.01214 -87.65938 30026 ft 387 kts 294°
2026-04-30 15:13 34.08386 -87.79717 30014 ft 390 kts 297°
2026-04-30 15:14 34.18644 -87.98959 30027 ft 390 kts 297°
2026-04-30 15:16 34.25677 -88.12811 29977 ft 378 kts 295°
2026-04-30 15:17 34.31103 -88.23741 28142 ft 383 kts 296°
2026-04-30 15:18 34.37922 -88.37549 25354 ft 381 kts 296°
2026-04-30 15:19 34.41993 -88.45826 23730 ft 381 kts 296°